Location: ????
(30.1475°N, 31.1342°E)
Time: 02:46:41
(UTC+00:00)

Cosmos 1697 Rocket - Pass Details

Date: 27 September 2022
Orbit: 831 x 845 km, 71.0° (Epoch: 30 November)

Event Time Altitude Azimuth Distance (km) Brightness Sun altitude
Rises 03:03:07 0° 335° (NNW) 3,394 5.6 -10.2°
Reaches altitude 10° 03:05:35 10° 332° (NNW) 2,459 4.9 -9.7°
Maximum altitude 03:11:07 60° 254° (WSW) 961 2.7 -8.5°
Drops below altitude 10° 03:16:39 10° 175° (S) 2,453 5.2 -7.3°
Sets 03:19:07 0° 172° (S) 3,386 5.9 -6.7°
